Погода в Чернацком

Украина / Сумская область     52°10′47″N   33°55′21″E
темп.,
°C
ветер,
м/с
пор.,
м/с
влажн.,
%
обл.,
%
осадки,
мм/ч
давл.,
гПа
погр.,
м
7 мая, пт
пт700:00+6з2285100 0.1 101115
03:00+5з228594 0.1 101327
06:00+4зюз228310 0.0 101318
09:00+11ююз34615 0.0 1014487
12:00+14ююз4645100 0.0 10131913
15:00+15ююз674489 0.0 10122235
18:00+13ю5962100 0.0 1011571
21:00+11ююв61467100 0.1 1010750
8 мая, сб
сб800:00+10ююв81686100 0.8 1008892
03:00+9ююв91792100 3.9 1005879
06:00+11ю81496100 3.0 1002705
09:00+10з6895100 10.9 1002677
12:00+10юз5109297 0.1 1004658
15:00+8зюз61091100 0.6 10071217
18:00+7з61192100 1.3 10081091
21:00+5сз61294100 2.9 1011823
9 мая, вс
вс900:00+4зсз612915 0.1 1014533
03:00+2зсз514905 0.1 1016441
06:00+2зсз411910 0.0 1019319
09:00+7сз59695 0.0 1020915
12:00+10сз795393 0.1 10212098
15:00+12ссз6943100 0.1 10222449
18:00+11ссз575310 0.0 10241489
21:00+6сз33745 0.0 102628
10 мая, пн
пн1000:00+4сз33796 0.0 102826
03:00+3ссз337910 0.0 102931
06:00+3ссв23786 0.0 103150
09:00+10ссв235645 0.0 1031431
12:00+14ссв45410 0.0 10301499
15:00+16ссв45395 0.0 10291861
18:00+15ссв36535 0.0 1028598
21:00+9в33750 0.0 102926
11 мая, вт
вт1100:00+6св33810 0.0 103040
03:00+5св34830 0.0 103062
06:00+5св37820 0.0 1030145
09:00+12всв59600 0.0 1029623
12:00+16всв68475 0.0 10281102
15:00+17всв684715 0.0 10261300
18:00+16всв5862100 0.0 1026776
21:00+11всв41080100 0.0 1026209